Hourly Data Report for October 04, 2013

All times are specified in Local Standard Time (LST). Add 1 hour to adjust for Daylight Saving Time where and when it is observed.

KAMLOOPS A
BRITISH COLUMBIA

50°42'09.000" N
120°26'55.000" W
345.30 m
1163781
71887
YKA

Download Data

Hourly Data (October 2013)
Hourly Data Report for October 4, 2013
Temp Definition
°C
Dew Point Temp Definition
°C
Rel Hum Definition
%
Wind Dir Definition
10's deg

Wind Spd Definition
km/h
Visibility Definition
km
Stn Press Definition
kPa
Hmdx Definition


Wind Chill Definition


Weather Definition


TIME
00:00 Legend Double Dagger 3.3 -1.5 71 5 4 64.4 98.93     LegendNANA
01:00 Legend Double Dagger 4.0 -0.4 73 9 5 64.4 98.99     Clear
02:00 Legend Double Dagger 3.0 -0.8 76 7 9 64.4 99.02     LegendNANA
03:00 Legend Double Dagger 0.5 -2.7 79 6 11 64.4 99.01     LegendNANA
04:00 Legend Double Dagger 3.7 0.4 79 12 14 64.4 99.02     Clear
05:00 Legend Double Dagger 3.4 0.1 79 11 13 64.4 98.95     LegendNANA
06:00 Legend Double Dagger 3.6 0.5 80 12 13 64.4 98.97     LegendNANA
07:00 Legend Double Dagger 3.2 0.1 80 10 5 64.4 99.05     Mostly Cloudy
08:00 Legend Double Dagger 4.8 0.4 73 5 14 64.4 99.05     LegendNANA
09:00 Legend Double Dagger 7.5 1.6 66 10 21 64.4 98.96     LegendNANA
10:00 Legend Double Dagger 9.7 1.9 58 9 21 64.4 98.87     Mostly Cloudy
11:00 Legend Double Dagger 12.5 2.1 49 10 19 64.4 98.78     LegendNANA
12:00 Legend Double Dagger 13.5 2.2 46 11 18 64.4 98.66     LegendNANA
13:00 Legend Double Dagger 15.1 1.7 40 12 9 64.4 98.52     Mostly Cloudy
14:00 Legend Double Dagger 15.8 3.0 42 11 23 64.4 98.40     LegendNANA
15:00 Legend Double Dagger 15.3 3.2 44 11 22 64.4 98.38     LegendNANA
16:00 Legend Double Dagger 15.8 2.7 41 10 12 64.4 98.34     Mostly Cloudy
17:00 Legend Double Dagger 15.1 1.7 40 11 31 64.4 98.37     LegendNANA
18:00 Legend Double Dagger 14.5 1.5 41 9 17 64.4 98.35     LegendNANA
19:00 Legend Double Dagger 15.2 0.3 36 5 2 64.4 98.38     Cloudy
20:00 Legend Double Dagger 13.8 1.8 44 10 26 64.4 98.34     LegendNANA
21:00 Legend Double Dagger 12.9 3.3 52 9 22 64.4 98.39     LegendNANA
22:00 Legend Double Dagger 12.7 4.0 55 9 28 64.4 98.37     Cloudy
23:00 Legend Double Dagger 12.6 3.6 54 9 16 64.4 98.36     LegendNANA

Notes on Data Quality.

Legend

  • E = Estimated
  • M = Missing
  • NA = Not Available
  • ‡ = Partner data that is not subject to review by the National Climate Archives
Date modified: